Find WHDW 22-03

NORAD ID: 69574 Int'l Des: 2026-137 Owner: ZXW Country: CN operational
LEOCIRCULAR

当前视图

正在加载3D地球...

About WHDW 22-03

WHDW 22-03 (NORAD 69574) is a satellite launched Jun 17, 2026 by ZXW of CN. It operates in LEO, CIRCULAR orbit with a mass of 800.00 kg.

即将过境

Passes for default location (London). Set your location on the main map for personalized predictions.

高度历史

Loading altitude history...

两行轨道根数

1 69574U 26137C 26168.87660979 -.00000119 00000-0 21780-4 0 9999
2 69574 49.9993 252.6685 0011868 227.8784 132.1107 13.92377598 124
Epoch: Jun 17, 2026 • Age: 11 hours

当前状态

高度 930.3 km
速度 7.39 km/s
星下点 47.87°N, 21.19°W
发射日期 Jun 17, 2026
运行时间 1 day
类型 other

技术详情

分类 Payload
质量 800.00 kg
干质量 800.00 kg
总质量 800.00 kg
长度 3.00 m
直径 1.00 m
跨度 10.00 m
形状 Box + 2 Pan
制造商 YINNT
平台类型 Xingwang Y
阶段状态 In Orbit
所有者/国家 ZXW/CN

Most Searched